Regional Weather Roundup
Issued by NWS Northern Indiana

Home | Current Version | Previous Version | Text Only | Print | Product List | Glossary Off
Versions: 1 2 3 4 5 6 7 8 9 10 11 12 13 14 15 16 17 18 19 20 21 22 23 24 25 26 27 28 29 30 31 32 33 34 35 36 37 38 39 40 41 42 43 44 45 46 47 48 49 50

000
ASUS43 KIWX 031100
RWRIWX

KIWX WEATHER ROUNDUP
NATIONAL WEATHER SERVICE NORTHERN INDIANA
700 AM EDT MON AUG 03 2015

NOTE: "FAIR" INDICATES FEW OR NO CLOUDS BELOW 12,000 FEET WITH NO
SIGNIFICANT WEATHER AND/OR OBSTRUCTIONS TO VISIBILITY.

* THESE STATIONS ARE NOT UNDER NWS QUALITY CONTROL. THEY ALSO MAY NOT
  REPORT WEATHER SUCH AS PRECIPITATION OR FOG.

INZ001>027-031200-
NORTHERN INDIANA

CITY           SKY/WX    TMP DP  RH WIND       PRES   REMARKS
GARY*          PTCLDY    64  64 100 W5        29.79R
VALPARAISO     FOG       61  60  97 CALM      29.80R VSB 1/2
SOUTH BEND     MOCLDY    64  62  93 W5        29.80R
ELKHART*       FOG       64  64 100 CALM      29.97  VSB 3/4
GOSHEN         CLOUDY    64  62  93 SW6       29.79R
ANGOLA*        CLOUDY    63  63 100 S6        29.79S
FORT WAYNE     PTCLDY    64  62  93 S7        29.81R

$$
INZ028>050-031200-
CENTRAL INDIANA

CITY           SKY/WX    TMP DP  RH WIND       PRES   REMARKS
LAFAYETTE      CLEAR     65  64  97 CALM      29.78S
KOKOMO*        CLEAR     64  61  88 S7        29.80R
MUNCIE*        CLOUDY    63  62  97 S10       29.82S
INDIANAPOLIS   PTCLDY    70  63  78 SE8       29.82R

$$
MIZ043>046-050>051-056>058-064>065-071>073-077>080-031200-
SOUTHWEST LOWER MICHIGAN

CITY           SKY/WX    TMP DP  RH WIND       PRES   REMARKS
BATTLE CREEK   FOG       63  61  93 SW5       29.78R VSB 1/4
BENTON HARBOR  MOCLDY    62  61  96 MISG      29.78R FOG
COLDWATER*     CLOUDY    63  62  97 CALM      29.78S
HILLSDALE*     CLOUDY    63  63 100 S7        29.79S
HOLLAND        FOG       60  59  96 CALM      29.77S VSB 1/2
GRAND RAPIDS   PTCLDY    60  60 100 CALM      29.76S FOG
KALAMAZOO      CLOUDY    64  62  93 CALM      29.77R
STURGIS*       CLOUDY    63  63 100 CALM      29.78R
THREE RIVERS*  FOG       64  63  97 N3        29.79R VSB 1/2

$$
OHZ001>008-015>018-024>025-031200-
NORTHWEST OHIO

CITY           SKY/WX    TMP DP  RH WIND       PRES   REMARKS
DEFIANCE       CLOUDY    63  61  93 SW6       29.80S
FINDLAY        CLOUDY    64  60  87 S13       29.79R
TOLEDO EXPRESS CLOUDY    62  61  96 W6        29.78R
TOLEDO METCALF CLOUDY    64  60  87 SW8       29.79S
LIMA           CLOUDY    63  60  90 S10       29.82R

$$
AND FOR LAKE MICHIGAN COASTAL AND OPEN LAKE BUOY OBSERVATIONS

STATION/POSITION TEMP    WIND        PRES    VSBY  WAVE
                 AIR SEA DIR/SP/G                  HT/PER
                 (F)     (DEG/KT/KT) (MB)    (MI)  (FT/S)
CALUMET HARBOR    67     230/  4/  5   N/A
MICHIGAN CITY     67     130/  4/  5   N/A
BURNS HARBOR      68     190/  5/  6 1008.8R
SAINT JOSEPH      66     150/  1/  2 1008.8S
4 MI NW BRIDGMAN  71 73  340/  6/  8   N/A           3/ 4
MICHIGAN CITY     72 73  310/  4/  6   N/A           2/ 5

$$
&&



USA.gov is the U.S. government's official web portal to all federal, state and local government web resources and services.